Location: Kershaw
(34.5481°N, 80.5823°W)
Time: 05:29:45
(UTC+00:00)

Transit 2A Rocket - Pass Details

Date: 06 October 2022
Orbit: 589 x 911 km, 66.7° (Epoch: 27 November)

Event Time Altitude Azimuth Distance (km) Brightness Sun altitude
Exits shadow 09:58:48 22° 214° (SSW) 1,303 5.9 -17.7°
Maximum altitude 10:01:29 76° 296° (WNW) 612 4.3 -17.1°
Drops below altitude 10° 10:05:46 10° 23° (NNE) 1,923 7.4 -16.3°
Sets 10:08:01 0° 25° (NNE) 2,841 8.4 -15.8°
